Chongqing, China

11:27 AM CST on November 14, 2019 (GMT +0800)
Jiangbei

Weather History for ZUCK - September, 2019

Change the Weather History Date:

Thursday, September 26, 2019

  Actual Average Record
Temperature  
Mean Temperature 72 °F -  
Max Temperature 81 °F - - ()
Min Temperature 62 °F - - ()
Cooling Degree Days 6    
Growing Degree Days 22 (Base 50)    
Moisture  
Dew Point 62 °F    
Average Humidity 73    
Maximum Humidity 100    
Minimum Humidity 40    
Precipitation  
Precipitation 0.00 in - - ()
Sea Level Pressure  
Sea Level Pressure 30.18 in    
Wind  
Wind Speed 4 mph ()    
Max Wind Speed 7 mph    
Max Gust Speed -    
Visibility 4.5 miles    
Events      
T = Trace of Precipitation, MM = Missing Value Source: Averaged Metar Reports

Daily Weather History Graph

Daily Weather History Graph

Search for Another Location

Airport or City:

Astronomy

Sep. 26, 2019 Rise Set
Actual Time 6:43 AM CST 6:45 PM CST
Civil Twilight 6:19 AM CST 7:09 PM CST
Nautical Twilight 5:52 AM CST 7:37 PM CST
Astronomical Twilight 5:24 AM CST 8:05 PM CST
Moon 3:31 AM CST (9/26) 5:19 PM CST (9/26)
Length of Visible Light 12h 49m
Length of Day
12h 02m
Waning Crescent, 10% of the Moon is Illuminated
Sep 26
Waning Crescent
Sep 29
New
Oct 6
First Quarter
Oct 14
Full
Oct 21
Last Quarter

Hourly Weather History & Observations

Time (CST) Temp. Heat Index Dew Point Humidity Pressure Visibility Wind Dir Wind Speed Gust Speed Precip Events Conditions
12:00 AM 64.4 °F - 62.6 °F 94% 30.24 in 4.3 mi North 6.7 mph - N/A   Unknown
1:00 AM 64.4 °F - 62.6 °F 94% 30.24 in 5.0 mi North 6.7 mph - N/A   Unknown
2:00 AM 66 °F - 62 °F 82% 30.18 in 3 mi NW 2.2 mph - -   Mist
2:00 AM 64.4 °F - 62.6 °F 94% 30.21 in 5.0 mi Variable 2.2 mph - N/A   Unknown
3:00 AM 62.6 °F - 60.8 °F 94% 30.21 in 5.0 mi NNE 4.5 mph - N/A   Unknown
4:00 AM 62.6 °F - 60.8 °F 94% 30.18 in 5.0 mi North 4.5 mph - N/A   Unknown
5:00 AM 65 °F - 62 °F 88% 30.16 in 2 mi NW 4.5 mph - -   Mist
5:00 AM 62.6 °F - 62.6 °F 100% 30.18 in 3.7 mi North 2.2 mph - N/A   Unknown
6:00 AM 64.4 °F - 62.6 °F 94% 30.21 in 3.7 mi North 2.2 mph - N/A   Unknown
7:00 AM 64.4 °F - 62.6 °F 94% 30.21 in 3.7 mi North 2.2 mph - N/A   Unknown
8:00 AM 66 °F - 63 °F 85% 30.19 in 3 mi NW 2.2 mph - -   Mist
8:00 AM 66.2 °F - 62.6 °F 88% 30.24 in 3.1 mi North 2.2 mph - N/A   Mist
9:00 AM 69.8 °F - 64.4 °F 83% 30.24 in 3.1 mi Calm Calm - N/A   Mist
10:00 AM 73.4 °F - 64.4 °F 73% 30.24 in 3.7 mi Calm Calm - N/A   Unknown
11:00 AM 76 °F - 64 °F 59% 30.20 in 3 mi East 4.5 mph - -   Mist
11:00 AM 73.4 °F - 62.6 °F 69% 30.24 in 5.0 mi SE 4.5 mph - N/A   Partly Cloudy
12:00 PM 73.4 °F - 62.6 °F 69% 30.24 in 6.2 mi Variable 4.5 mph - N/A   Scattered Clouds
1:00 PM 78.8 °F - 59.0 °F 51% 30.21 in 6.2 mi Variable 2.2 mph - N/A   Scattered Clouds
2:00 PM 80 °F - 60 °F 40% 30.12 in 4 mi NE 2.2 mph - -   Partly Cloudy
2:00 PM 78.8 °F - 60.8 °F 54% 30.18 in 6.2 mi NNW 4.5 mph - N/A   Scattered Clouds
3:00 PM 80.6 °F 81.5 °F 60.8 °F 51% 30.15 in 6.2 mi SSW 6.7 mph - N/A   Partly Cloudy
4:00 PM 80.6 °F 81.5 °F 60.8 °F 51% 30.12 in 6.2 mi South 6.7 mph - N/A   Partly Cloudy
5:00 PM 81 °F - 61 °F 41% 30.06 in 6 mi West 2.2 mph - -   Scattered Clouds
5:00 PM 78.8 °F - 60.8 °F 54% 30.12 in 6.2 mi WNW 4.5 mph - N/A   Partly Cloudy
6:00 PM 78.8 °F - 60.8 °F 54% 30.12 in - WNW 4.5 mph - N/A   Clear
7:00 PM 75.2 °F - 62.6 °F 65% 30.15 in - NW 6.7 mph - N/A   Clear
8:00 PM 76 °F - 62 °F 53% 30.11 in 4 mi WNW 2.2 mph - -   Mist
8:00 PM 73.4 °F - 62.6 °F 69% 30.15 in - NNW 6.7 mph - N/A   Clear
9:00 PM 73.4 °F - 62.6 °F 69% 30.18 in - NW 4.5 mph - N/A   Clear
10:00 PM 71.6 °F - 62.6 °F 73% 30.18 in - North 6.7 mph - N/A   Clear
11:00 PM 73 °F - 63 °F 64% 30.15 in 4 mi WNW 2.2 mph - -   Mist
11:00 PM 69.8 °F - 62.6 °F 78% 30.21 in - North 4.5 mph - N/A   Clear